{"data":{"norad_id":40358,"intl_designator":"2014-086A","name":"COSMOS 2502","alt_names":[],"object_type":"PAYLOAD","status":"ACTIVE","operator":null,"country":"CIS","launch_date":"2014-12-25","launch_site_code":"PLMSC","launch_vehicle":null,"mission":null,"orbit_class":"UNKNOWN","rcs_meters":12.9348,"size_class":null,"mass_kg":null,"dimensions":null,"purposes":[],"wikipedia_slug":null,"has_3d_model":false,"image_url":null,"decayed_at":null,"tle_current":{"epoch":"2026-09-20T03:53:21.520896Z","epoch_age_seconds":36998,"freshness":"FRESH","line1":"1 40358U 14086A   26263.16205464 -.00000180  00000+0 -73903-4 0  9992","line2":"2 40358  67.1521 136.0168 0005736 244.5301 115.5191 13.97831922597222","mean_motion":13.97831922,"eccentricity":0.0005736,"inclination_deg":67.1521,"raan_deg":136.0168,"arg_perigee_deg":244.5301,"mean_anomaly_deg":115.5191,"bstar":-7.3903e-5,"rev_number":59722,"period_min":103.01667727975,"perigee_km":897.13702495157,"apogee_km":905.4880094377,"semimajor_km":7279.4495171946,"source":"CELESTRAK","updated_at":"2026-09-20T09:00:14.059402Z"}}}